This is the latest recevied weather packets stored in our database for station/object EA7OC-10. If no packets are shown the sender has not sent any weather packets the latest 10 day(s).
| Time | Temp. | Humidity | Pressure | Rain* | Wind** | Luminosity | Snow |
|---|---|---|---|---|---|---|---|
| 1778125515 | 13.89° C | 28% | 1010.3 hPa | - | - | - | - |
| 1778124614 | 13.89° C | 28% | 1010.4 hPa | - | - | - | - |
| 1778123714 | 14.44° C | 27% | 1010.1 hPa | - | - | - | - |
| 1778122814 | 15.56° C | 27% | 1010.2 hPa | - | - | - | - |
| 1778121949 | 15.56° C | 28% | 1010.2 hPa | - | - | - | - |
| 1778121914 | 15.56° C | 28% | 1010.2 hPa | - | - | - | - |
| 1778121046 | 15.56° C | 28% | 1010.1 hPa | - | - | - | - |
| 1778121014 | 15.56° C | 28% | 1010.1 hPa | - | - | - | - |
| 1778120109 | 15.56° C | 27% | 1010 hPa | - | - | - | - |
| 1778119208 | 15.56° C | 28% | 1010.3 hPa | - | - | - | - |
| 1778118307 | 15.56° C | 27% | 1010.4 hPa | - | - | - | - |
| 1778117407 | 15.56° C | 27% | 1010.4 hPa | - | - | - | - |
| 1778116506 | 16.11° C | 27% | 1010.6 hPa | - | - | - | - |
| 1778115606 | 16.67° C | 27% | 1010.8 hPa | - | - | - | - |
| 1778114706 | 17.22° C | 27% | 1010.8 hPa | - | - | - | - |
| 1778113805 | 17.78° C | 27% | 1010.7 hPa | - | - | - | - |
| 1778112905 | 17.78° C | 27% | 1010.8 hPa | - | - | - | - |
| 1778112005 | 17.78° C | 27% | 1010.8 hPa | - | - | - | - |
| 1778111136 | 17.78° C | 27% | 1010.9 hPa | - | - | - | - |
| 1778111105 | 17.78° C | 27% | 1010.9 hPa | - | - | - | - |
| 1778110205 | 17.22° C | 27% | 1011 hPa | - | - | - | - |
| 1778109305 | 17.22° C | 27% | 1010.9 hPa | - | - | - | - |
| 1778108405 | 17.22° C | 27% | 1010.9 hPa | - | - | - | - |
| 1778107504 | 16.67° C | 26% | 1010.6 hPa | - | - | - | - |
| 1778106603 | 16.67° C | 26% | 1010.3 hPa | - | - | - | - |
* Rain since midnight (hover to see other rain measurements)
** Current wind speed in m/s (hover to see current wind gust speed)